www.pogodaiklimat.ru

АРХИВ ПОГОДЫ в Лос-Анджелесе

Время (UTC), дата Ветер
(напр.,м/с)
 
Видим.   Явления Облачность Т
(С)
Тd
(С)
f
(%)
Тe
(С)
Тes
(С)
Комфортность

P
(гПа)

Po
(гПа)
Тmin
(С)
Tmax
(С)
R
(мм)
SD
(см)
00:53 27.09 ЮЗ  16 км    10/10 м
[средняя верхняя] 
0.0  0.0  100  -6  -6    1012.7  1008.2  +18.9  +20.6     
01:31 27.09 ЮЗ  14 км    10/10 м
[средняя верхняя] 
0.0  0.0  100  -6  -6    1013.2  1008.5  +18.9  +20.6     
02:53 27.09 З  16 км    10/10 м
[средняя верхняя] 
0.0  0.0  100  -5  -5    1014.1  1009.5  +18.9  +20.6     
03:17 27.09 З  16 км    10/10 м
[средняя верхняя] 
0.0  0.0  100  -5  -5    1014.3  1009.9  +18.9  +20.6     
04:14 27.09 З  14 км    10/10 м
[средняя верхняя] 
0.0  0.0  100  -5  -5    1014.3  1009.9  +18.9  +20.6     
05:53 27.09 С  14 км    10/10 м
[средняя верхняя] 
0.0  0.0  100  -3  -3    1014.1  1009.5  +18.3  +19.4     
06:50 27.09 С  13 км    10/10 м
[средняя верхняя] 
0.0  0.0  100  -3  -3    1013.8  1009.2  +18.3  +19.4     
07:53 27.09 С  13 км    10/10 м
[средняя верхняя] 
0.0  0.0  100  -5  -5    1013.5  1009.2  +18.3  +19.4     
08:53 27.09 СЗ  13 км    10/10 м
[средняя верхняя] 
0.0  0.0  100  -3  -3    1013.3  1008.9  +18.3  +19.4     
09:47 27.09 З   13 км    10/10 м
[средняя верхняя] 
0.0  0.0  100  -3  -3    1012.9  1008.5  +18.3  +19.4     
10:53 27.09 З  11 км    10/10 м
[средняя верхняя] 
0.0  0.0  100  -5  -5    1012.8  1008.2  +18.3  +19.4     
11:23 27.09 З   10 км    10/10 м
[средняя верхняя] 
0.0  0.0  100  -5  -5    1012.7  1008.5  +18.3  +21.1     
13:53 27.09 С  8 км    10/10 м
[средняя верхняя] 
+18.9  +16.7  87  +20  +20    1013.2  1008.9  +18.3  +21.1     
14:17 27.09 С  8 км    10/10 м
[средняя верхняя] 
+19.0  +17.0  88  +21  +21  комфорт  1013.4  1008.9  +18.3  +21.1     
15:53 27.09 З  10 км    10/10 м
[средняя верхняя] 
+21.0  +17.0  78  +25  +25  комфорт  1013.6  1009.2  +18.3  +21.1     
16:28 27.09 З  8 км    10/10 м
[средняя верхняя] 
+21.0  +17.0  78  +25  +25  комфорт  1013.6  1009.2  +18.3  +21.1     
17:53 27.09 З  2 км    10/10 м
[средняя верхняя] 
+20.0  +17.0  83  +23  +23  комфорт  1013.3  1008.9  +20.0  +21.7     
18:16 27.09 З  3 км    10/10 м
[средняя верхняя] 
+21.0  +17.0  78  +25  +25  комфорт  1012.5  1008.2  +20.0  +21.7     
19:16 27.09 З   2 км    10/10 м
[средняя верхняя] 
+21.0  +17.0  78  +25  +25  комфорт  1011.6  1007.5  +20.0  +21.7     
20:53 27.09 З  13 км    10/10 м
[средняя верхняя] 
+21.0  +17.0  78  +25  +25  комфорт  1011.0  1006.5  +20.0  +21.7     
21:43 27.09 З   16 км    10/10 м
[средняя верхняя] 
+21.0  +17.0  78  +25  +25  комфорт  1010.6  1006.2  +20.0  +21.7     
22:53 27.09 З   11 км    10/10 м
[средняя верхняя] 
+20.0  +16.7  81  +22  +22  комфорт  1010.0  1005.5  +20.0  +21.7     
23:53 27.09 ЮЗ  11 км    10/10 м
[средняя верхняя] 
+18.0  +16.0  88  +18  +18    1010.1  1005.5  +18.3  +20.0     
00:39 28.09 ЮЗ  11 км    10/10 м
[средняя верхняя] 
+18.0  +16.0  88  +18  +18    1010.1  1005.5  +18.3  +20.0     
01:53 28.09 ЮЗ  16 км    10/10 м
[средняя верхняя] 
+18.3  +16.1  87  +18  +18    1010.5  1006.2  +18.3  +20.0     
02:19 28.09 З  16 км    10/10 м
[средняя верхняя] 
+18.0  +16.0  88  +18  +18    1010.9  1006.2  +18.3  +20.0     
03:11 28.09 З   16 км    10/10 м
[средняя верхняя] 
+19.0  +17.0  88  +20  +20    1011.1  1006.5  +18.3  +20.0     
04:53 28.09 ЮЗ  16 км    10/10 м
[средняя верхняя] 
+18.3  +16.1  87  +19  +19    1011.3  1006.8  +18.3  +20.0     
05:53 28.09 ЮЗ  16 км    10/10 м
[средняя верхняя] 
+18.0  +17.0  94  +19  +19    1011.5  1007.2  +18.3  +18.9     
06:53 28.09 ЮЗ  14 км    10/10 м
[средняя верхняя] 
+18.9  +16.7  87  +21  +21  комфорт  1011.8  1007.2  +18.3  +18.9     
07:53 28.09 Ю  13 км    10/10 м
[средняя] 
+18.9  +16.7  87  +21  +21  комфорт  1011.9  1007.5  +18.3  +18.9     
08:53 28.09 штиль  8 км    10/10 м
[средняя] 
+18.0  +17.0  94  +18  +18    1011.8  1007.2  +18.3  +18.9     
09:53 28.09 СВ  5 км    10/10 м
[средняя] 
+18.0  +17.0  94  +19  +19    1011.8  1007.5  +18.3  +18.9     
10:46 28.09 В  4 км    10/10 м
[средняя] 
+19.0  +17.0  88  +21  +21  комфорт  1011.7  1007.2  +18.3  +18.9     
11:53 28.09 СВ  3 км    10/10 м
[средняя] 
+19.0  +17.0  88  +21  +21  комфорт  1011.6  1007.2  +18.9  +21.1     
12:53 28.09 В  3 км    10/10 м
[средняя] 
+19.0  +17.0  88  +21  +21  комфорт  1011.8  1007.5  +18.9  +21.1     
13:53 28.09 СВ  3 км    10/10 м
[средняя] 
+18.9  +17.2  90  +21  +21  комфорт  1012.1  1007.5  +18.9  +21.1     
14:53 28.09 ЮВ  4 км    10/10 м
[средняя] 
+19.0  +17.0  88  +21  +21  комфорт  1012.2  1007.9  +18.9  +21.1     
15:44 28.09 штиль  4 км    10/10 м
[средняя] 
+20.0  +17.0  83  +23  +23  комфорт  1012.5  1008.2  +18.9  +21.1     
16:53 28.09 ЮЗ  5 км    10/10 м
[средняя] 
+21.1  +17.2  78  +25  +25  комфорт  1012.6  1008.2  +18.9  +21.1     
17:18 28.09 ЮЗ  4 км    10/10 м
[средняя] 
+21.0  +17.0  78  +25  +25  комфорт  1012.2  1007.9  +20.0  +23.3     
18:39 28.09 З  6 км    10/10 м
[средняя] 
+22.0  +17.0  73  +26  +26  душно  1011.8  1007.5  +20.0  +23.3     
19:53 28.09 ЮЗ  8 км    10/10 м
[средняя] 
+22.8  +17.2  71  +28  +28  душно  1011.1  1006.8  +20.0  +23.3     
20:53 28.09 нст  13 км    10/10 м
[средняя] 
+22.0  +17.0  73  +26  +26  душно  1010.7  1006.2  +20.0  +23.3     
21:53 28.09 З   13 км    10/10 м
[средняя] 
+21.0  +17.0  78  +25  +25  комфорт  1010.9  1006.5  +20.0  +23.3     
22:53 28.09 З   16 км    10/10 м  +20.0  +16.7  81  +22  +22  комфорт  1010.9  1006.5  +20.0  +23.3     
23:53 28.09 З  14 км    10/10 м  +19.0  +16.0  83  +20  +20    1010.5  1006.2  +18.9  +20.6     
00:53 29.09 З   13 км    10/10 м  +19.0  +16.0  83  +20  +20    1010.7  1006.2  +18.9  +20.6     

 

Местоположение метеостанции Los Angeles International Airport: широта 33.9381 долгота -118.3889 высота над уровнем моря 38 м.

В архиве по умолчанию представлена погода в Лос-Анджелесе за последние 1-2 суток. Обновление информации о фактической погоде в базе происходит ежечасно! Архивные данные за месяц целиком и за предыдущие месяцы Вы можете получить, выбрав интересующий диапазон дат из раскрывающегося списка и нажав кнопку "Ввод!".

Внимание! Архив погоды МЕТАР в базе сайта в настоящее время начинается c 1 января 2013 г. Нет смысла пытаться выбрать более раннюю дату.

Внимание! Время в таблицах - всемирное. Для получения местного времени необходимо прибавить поправку, которая в Лос-Анджелесе равна -8 ч.

Ветер - указаны скорость ветра в м/с и направление, откуда дует ветер: С - северный, СВ - северо-восточный, В - восточный, ЮВ - юго-восточный, Ю - южный, ЮЗ - юго-западный, З - западный, СЗ - северо-западный.
Видимость - горизонтальная дальность видимости в метрах или километрах. При видимости от 1 до 10 км при отсутствии осадков обычно наблюдается дымка, при ухудшении видимости до 1 км и менее - туман. В сухую погоду видимость может ухудшаться дымом, пылью или мглою.
Атмосферные явления - указаны явления, наблюдавшиеся в указанный момент времени.
Облачность - указаны через наклонную черту верхняя и нижняя облачность в баллах и высота нижней границы облаков в метрах. Внимание: облачность, как и прочие метеорологические величины в США измеряются автоматическими метеостанциями. Указанные значения в баллах носят условный характер и показывают процент времени, в течение которого, в среднем, лазерный луч высотомера отражался от облаков обратно.
T - Температура воздуха - температура, измеренная на высоте 2 м над землей.
Td - Температура точки росы - температура, при понижении до которой содержащийся в воздухе водяной пар достигнет насыщения.
f - Относительная влажность воздуха - влажноcть воздуха, измеренная на высоте 2 м над землей.
Te - Эффективная температура - температура, которую ощущает одетый по сезону человек в тени. Характеристика душности погоды. При расчете учитывается влияние влажности воздуха и скорости ветра на теплоощущения человека.
Tes - Эффективная температура на солнце - температура, которую ощущает человек, с поправкой на солнечный нагрев. Характеристика знойности погоды. Зависит от высоты солнца над горизонтом, облачности и скорости ветра. Ночью, в пасмурную погоду, а также при ветре 12 м/с и более поправка равна нулю.
P - Атмосферное давление - приведенное к уровню моря атмосферное давление.
Po - Атмосферное давление - измеренное на уровне метеостанции атмосферное давление.
Tmin - Минимальная температура - минимум температуры воздуха на высоте 2 м над землей.
Tmax - Максимальная температура - максимум температуры воздуха на высоте 2 м над землей.
R - Количество осадков - Количество выпавших осадков за 3 или 6 часов, мм.
SD - Снежный покров - Высота снежного покрова, см.